Location: Unspecified
(0.0000°N, 0.0000°E)
Time: 07:33:40
(UTC+00:00)

Vanguard 1 Rocket - Pass Details

Date: 13 December 2017
Orbit: 656 x 4222 km, 34.3° (Epoch: 14 January)

Event Time Altitude Azimuth Distance (km) Brightness Sun altitude
Rises 12:58:18 0° 230° (SW) 2,967 10.4 62.1°
Reaches altitude 10° 13:00:25 10° 227° (SW) 2,079 9.9 61.8°
Maximum altitude 13:04:53 72° 143° (SE) 806 8.5 61.2°
Drops below altitude 10° 13:11:16 10° 58° (ENE) 2,935 9.8 60.2°
Sets 13:14:47 0° 57° (ENE) 4,336 10.6 59.7°
